Tracking 31027 objects as of 19-Jul-2025
HD Live streaming from Space Station
objects crossing your sky now

TJS-17

Track TJS-17 now!


NORAD ID: 63524
Int'l Code: 2025-073A
Perigee: 35,783.3 km
Apogee: 35,806.2 km
Inclination: 0.2 °
Period: 1,436.1 minutes
Semi major axis: 42165 km
RCS: Unknown
Launch date: April 10, 2025
Source: People's Republic of China (PRC)
Launch site: Xichang Space Center, China (XSC)
Your satellite tracking list
HAWK-4A
Track 1 satellite(s)




NASA's NSSDC Master Catalog

Two Line Element Set (TLE):
1 63524U 25073A   25199.76120462 -.00000171  00000-0  00000+0 0  9990
2 63524   0.2004  81.0291 0002716  94.2081 188.3772  1.00268363  1151
Source of the keplerian elements: AFSPC